W5CGC Weather Reports


Display with metric or nautical units.
time (UTC)temp
F
wind
direction
speed
MPH
gust
MPH
rain 1hr
in
rain 24hr
in
rain mn
in
humidity
%
barometer
mb
20260903151541 83 30 1.0 8.0 0.00 0.00 0.00 60 1013.4
20260903150106 81 0 0.0 4.0 0.00 0.00 0.00 61 1013.5
20260903144543 81 67 0.0 4.0 0.00 0.00 0.00 62 1013.6
20260903143040 80 197 0.0 9.0 0.00 0.00 0.00 62 1013.7
20260903141542 79 21 0.0 6.0 0.00 0.00 0.00 63 1013.7
20260903140043 79 0 0.0 4.0 0.00 0.00 0.00 64 1013.7
20260903134550 78 22 0.0 3.0 0.00 0.00 0.00 64 1013.5
20260903133042 78 0 0.0 0.0 0.00 0.00 0.00 65 1013.4
20260903131542 77 179 0.0 3.0 0.00 0.00 0.00 65 1013.4
20260903130041 76 0 0.0 0.0 0.00 0.00 0.00 66 1013.2
20260903124549 75 0 0.0 0.0 0.00 0.00 0.00 66 1013.3
20260903123042 75 0 0.0 0.0 0.00 0.00 0.00 67 1013.0
20260903121540 75 0 0.0 0.0 0.00 0.00 0.00 65 1012.8
20260903120049 75 0 0.0 0.0 0.00 0.00 0.00 65 1013.0
20260903114539 76 0 0.0 0.0 0.00 0.00 0.00 65 1012.9
20260903113047 75 0 0.0 0.0 0.00 0.00 0.00 65 1013.0
20260903111540 75 0 0.0 0.0 0.00 0.00 0.00 65 1012.8
20260903110043 75 0 0.0 0.0 0.00 0.00 0.00 65 1012.7
20260903104541 76 0 0.0 0.0 0.00 0.00 0.00 65 1012.5
20260903103042 76 0 0.0 0.0 0.00 0.00 0.00 65 1012.3
20260903101541 76 0 0.0 0.0 0.00 0.00 0.00 64 1012.5
20260903100047 77 0 0.0 0.0 0.00 0.00 0.00 64 1012.5
20260903094554 76 0 0.0 0.0 0.00 0.00 0.00 65 1012.5
20260903093040 76 0 0.0 0.0 0.00 0.00 0.00 65 1012.7
20260903091547 76 0 0.0 0.0 0.00 0.00 0.00 65 1012.6
20260903090040 76 0 0.0 0.0 0.00 0.00 0.00 64 1012.6
20260903084547 77 0 0.0 0.0 0.00 0.00 0.00 63 1012.5
20260903083043 77 0 0.0 0.0 0.00 0.00 0.00 62 1012.4
20260903081537 77 0 0.0 0.0 0.00 0.00 0.00 62 1012.5
20260903080048 78 0 0.0 0.0 0.00 0.00 0.00 62 1012.5
20260903074545 78 0 0.0 0.0 0.00 0.00 0.00 61 1012.6
20260903073041 78 0 0.0 0.0 0.00 0.00 0.00 60 1012.5
20260903071537 79 0 0.0 0.0 0.00 0.00 0.00 59 1012.5
20260903070042 80 0 0.0 0.0 0.00 0.00 0.00 58 1012.5
20260903064541 80 0 0.0 0.0 0.00 0.00 0.00 57 1012.7
20260903063043 81 0 0.0 0.0 0.00 0.00 0.00 56 1012.8
20260903061541 81 0 0.0 2.0 0.00 0.00 0.00 55 1013.1
20260903060043 82 0 0.0 5.0 0.00 0.00 0.00 54 1013.1
20260903054545 82 222 0.0 4.0 0.00 0.00 0.00 53 1013.2
20260903053057 82 215 0.0 2.0 0.00 0.00 0.00 52 1013.2
20260903051540 83 0 0.0 2.0 0.00 0.00 0.00 51 1013.2
20260903050050 83 0 0.0 4.0 0.00 0.00 0.00 50 1013.2
20260903044555 84 0 0.0 3.0 0.00 0.00 0.00 49 1012.9
20260903043039 84 99 0.0 3.0 0.00 0.00 0.00 48 1013.0
20260903041544 85 0 1.0 4.0 0.00 0.00 0.00 47 1013.1
20260903040046 85 219 0.0 4.0 0.00 0.00 0.00 46 1012.9
20260903034542 86 249 2.0 6.0 0.00 0.00 0.00 45 1013.0
20260903033041 87 234 0.0 5.0 0.00 0.00 0.00 44 1013.1
20260903031544 88 0 1.0 4.0 0.00 0.00 0.00 43 1012.8
20260903030042 89 0 1.0 8.0 0.00 0.00 0.00 40 1012.8
20260903024540 89 227 2.0 9.0 0.00 0.00 0.00 39 1012.5
20260903023043 90 213 1.0 8.0 0.00 0.00 0.00 37 1012.3
20260903021550 90 0 0.0 6.0 0.00 0.00 0.00 39 1012.0
20260903020043 91 217 2.0 6.0 0.00 0.00 0.00 40 1011.9
20260903014547 91 211 0.0 3.0 0.00 0.00 0.00 39 1011.6
20260903013040 91 191 0.0 3.0 0.00 0.00 0.00 40 1011.5
20260903011540 91 219 0.0 2.0 0.00 0.00 0.00 39 1011.3
20260903010044 92 213 0.0 2.0 0.00 0.00 0.00 38 1011.2
20260903004540 92 211 1.0 3.0 0.00 0.00 0.00 38 1011.2
20260903003047 93 221 1.0 8.0 0.00 0.00 0.00 38 1011.2
20260903001545 94 242 2.0 7.0 0.00 0.00 0.00 34 1011.1
20260903000041 96 170 0.0 3.0 0.00 0.00 0.00 29 1010.9
20260902234546 96 174 0.0 4.0 0.00 0.00 0.00 28 1010.8
20260902233045 96 169 0.0 4.0 0.00 0.00 0.00 27 1010.8
20260902231543 97 131 1.0 3.0 0.00 0.00 0.00 27 1010.7
20260902230042 96 276 1.0 3.0 0.00 0.00 0.00 28 1010.7
20260902224543 97 157 0.0 4.0 0.00 0.00 0.00 28 1010.8
20260902223043 97 146 1.0 3.0 0.00 0.00 0.00 27 1010.8
20260902221543 97 155 0.0 2.0 0.00 0.00 0.00 28 1011.1
20260902220047 97 148 1.0 4.0 0.00 0.00 0.00 29 1011.3
20260902214542 97 158 1.0 5.0 0.00 0.00 0.00 30 1011.4
20260902213045 98 153 1.0 4.0 0.00 0.00 0.00 28 1011.5
20260902211556 98 160 0.0 3.0 0.00 0.00 0.00 28 1011.7
20260902210109 98 168 1.0 4.0 0.00 0.00 0.00 27 1012.1
20260902204544 98 175 1.0 3.0 0.00 0.00 0.00 27 1012.2
20260902203046 98 203 1.0 5.0 0.00 0.00 0.00 29 1012.3
20260902201546 98 143 1.0 2.0 0.00 0.00 0.00 29 1012.6
20260902200041 98 147 1.0 4.0 0.00 0.00 0.00 28 1012.9
20260902194545 98 166 1.0 6.0 0.00 0.00 0.00 27 1013.0
20260902193042 97 172 1.0 3.0 0.00 0.00 0.00 29 1013.2
20260902191546 97 169 0.0 4.0 0.00 0.00 0.00 29 1013.5
20260902190043 97 168 1.0 4.0 0.00 0.00 0.00 31 1013.7
20260902184542 97 163 1.0 4.0 0.00 0.00 0.00 31 1013.8
20260902183046 96 168 1.0 4.0 0.00 0.00 0.00 33 1014.2
20260902181541 96 154 0.0 4.0 0.00 0.00 0.00 33 1014.6
20260902180105 95 124 0.0 4.0 0.00 0.00 0.00 34 1014.9
20260902174544 94 128 0.0 5.0 0.00 0.00 0.00 34 1015.2
20260902173040 93 181 1.0 5.0 0.00 0.00 0.00 36 1015.3
20260902171549 91 172 1.0 6.0 0.00 0.00 0.00 39 1015.5
20260902170042 90 159 0.0 4.0 0.00 0.00 0.00 39 1015.7
20260902164542 89 149 1.0 4.0 0.00 0.00 0.00 41 1015.8
20260902163043 89 165 1.0 3.0 0.00 0.00 0.00 42 1015.9
20260902161543 88 204 2.0 4.0 0.00 0.00 0.00 43 1016.1
20260902160041 88 174 1.0 3.0 0.00 0.00 0.00 44 1016.1
20260902154540 87 169 1.0 5.0 0.00 0.00 0.00 47 1016.1
20260902153044 86 172 1.0 4.0 0.00 0.00 0.00 47 1016.1